| time (UTC) | temp C | wind direction | speed KPH | gust KPH | rain 1hr cm | rain 24hr cm | rain mn cm | humidity % | barometer mb |
| 20260507041709 | 16 | 58 | 4.8 | 1.6 | 0.00 | 0.00 | 0.00 | 90 | 1018.0 |
| 20260507040708 | 15 | 58 | 4.8 | 1.6 | 0.00 | 0.00 | 0.00 | 90 | 1018.0 |
| 20260507035707 | 14 | 58 | 4.8 | 3.2 | 0.00 | 0.00 | 0.00 | 90 | 1018.0 |
| 20260507034707 | 16 | 77 | 1.6 | 1.6 | 0.00 | 0.00 | 0.00 | 91 | 1018.0 |
| 20260507033706 | 15 | 77 | 1.6 | 1.6 | 0.00 | 0.00 | 0.00 | 91 | 1018.0 |
| 20260507032705 | 14 | 77 | 3.2 | 1.6 | 0.00 | 0.00 | 0.00 | 91 | 1018.0 |
| 20260507031705 | 17 | 77 | 1.6 | 1.6 | 0.00 | 0.00 | 0.00 | 89 | 1018.0 |
| 20260507030704 | 17 | 77 | 1.6 | 1.6 | 0.00 | 0.00 | 0.00 | 89 | 1018.0 |
| 20260507025704 | 16 | 77 | 1.6 | 1.6 | 0.00 | 0.00 | 0.00 | 89 | 1017.0 |
| 20260507024703 | 15 | 77 | 1.6 | 1.6 | 0.00 | 0.00 | 0.00 | 89 | 1017.0 |
| 20260507023702 | 14 | 77 | 3.2 | 1.6 | 0.00 | 0.00 | 0.00 | 89 | 1017.0 |
| 20260507022702 | 17 | 93 | 1.6 | 1.6 | 0.00 | 0.00 | 0.00 | 91 | 1017.0 |
| 20260507020701 | 16 | 93 | 1.6 | 1.6 | 0.00 | 0.00 | 0.00 | 91 | 1017.0 |
| 20260507015700 | 16 | 93 | 1.6 | 1.6 | 0.00 | 0.00 | 0.00 | 91 | 1017.0 |
| 20260507014659 | 15 | 93 | 1.6 | 1.6 | 0.00 | 0.00 | 0.00 | 91 | 1017.0 |
| 20260507013659 | 18 | 184 | 1.6 | 1.6 | 0.00 | 0.00 | 0.00 | 90 | 1016.0 |
| 20260507012658 | 18 | 184 | 1.6 | 1.6 | 0.00 | 0.00 | 0.00 | 90 | 1016.0 |
| 20260507011658 | 17 | 184 | 1.6 | 1.6 | 0.00 | 0.00 | 0.00 | 90 | 1016.0 |
| 20260507010657 | 16 | 184 | 1.6 | 1.6 | 0.03 | 0.00 | 0.00 | 90 | 1016.0 |
| 20260507005657 | 15 | 184 | 1.6 | 1.6 | 0.03 | 0.00 | 0.00 | 90 | 1016.0 |
| 20260507004656 | 19 | 184 | 1.6 | 1.6 | 0.00 | 0.00 | 0.00 | 87 | 1015.0 |
| 20260507003655 | 18 | 184 | 1.6 | 1.6 | 0.00 | 0.00 | 0.00 | 87 | 1015.0 |
| 20260507002655 | 19 | 230 | 4.8 | 1.6 | 0.10 | 0.00 | 0.00 | 88 | 1015.0 |
| 20260507001654 | 18 | 230 | 4.8 | 1.6 | 0.08 | 0.00 | 0.00 | 88 | 1015.0 |
| 20260507000653 | 18 | 230 | 4.8 | 1.6 | 0.05 | 0.00 | 0.00 | 86 | 1015.0 |
| 20260506235653 | 17 | 230 | 4.8 | 1.6 | 0.00 | 0.00 | 0.00 | 86 | 1015.0 |
| 20260506234652 | 16 | 230 | 4.8 | 1.6 | 0.00 | 0.00 | 0.00 | 86 | 1015.0 |
| 20260506233652 | 18 | 210 | 6.4 | 4.8 | 0.00 | 0.00 | 0.00 | 82 | 1015.0 |
| 20260506232651 | 17 | 210 | 6.4 | 4.8 | 0.00 | 0.00 | 0.00 | 82 | 1014.0 |
| 20260506231650 | 16 | 210 | 6.4 | 4.8 | 0.00 | 0.00 | 0.00 | 82 | 1014.0 |
| 20260506230649 | 16 | 210 | 6.4 | 4.8 | 0.00 | 0.00 | 0.00 | 82 | 1014.0 |
| 20260506225648 | 24 | 210 | 6.4 | 4.8 | 0.00 | 0.00 | 0.00 | 79 | 1014.0 |
| 20260506224648 | 21 | 211 | 11.3 | 8.0 | 0.00 | 0.00 | 0.00 | 79 | 1014.0 |
| 20260506223647 | 21 | 211 | 11.3 | 8.0 | 0.00 | 0.00 | 0.00 | 79 | 1014.0 |
| 20260506222647 | 20 | 211 | 11.3 | 8.0 | 0.00 | 0.00 | 0.00 | 79 | 1014.0 |
| 20260506221646 | 18 | 211 | 11.3 | 8.0 | 0.00 | 0.00 | 0.00 | 79 | 1014.0 |
| 20260506220645 | 21 | 211 | 11.3 | 8.0 | 0.00 | 0.00 | 0.00 | 80 | 1014.0 |
| 20260506215645 | 20 | 211 | 11.3 | 8.0 | 0.00 | 0.00 | 0.00 | 80 | 1014.0 |
| 20260506214644 | 18 | 211 | 11.3 | 8.0 | 0.00 | 0.00 | 0.00 | 80 | 1014.0 |
| 20260506213643 | 18 | 211 | 11.3 | 8.0 | 0.00 | 0.00 | 0.00 | 80 | 1014.0 |
| 20260506212643 | 24 | 214 | 11.3 | 9.7 | 0.00 | 0.00 | 0.00 | 78 | 1014.0 |
| 20260506211642 | 24 | 214 | 11.3 | 9.7 | 0.00 | 0.00 | 0.00 | 78 | 1014.0 |
| 20260506210031 | 24 | 214 | 11.3 | 9.7 | 0.00 | 0.00 | 0.00 | 78 | 1014.0 |
| 20260506205031 | 23 | 214 | 11.3 | 9.7 | 0.00 | 0.00 | 0.00 | 78 | 1014.0 |
| 20260506204030 | 22 | 214 | 11.3 | 9.7 | 0.00 | 0.00 | 0.00 | 77 | 1014.0 |
| 20260506203029 | 22 | 210 | 11.3 | 11.3 | 0.00 | 0.00 | 0.00 | 69 | 1014.0 |
| 20260506202020 | 21 | 210 | 11.3 | 11.3 | 0.00 | 0.00 | 0.00 | 69 | 1014.0 |
| 20260506201019 | 20 | 210 | 11.3 | 11.3 | 0.00 | 0.00 | 0.00 | 69 | 1014.0 |
| 20260506200018 | 20 | 210 | 11.3 | 11.3 | 0.00 | 0.00 | 0.00 | 69 | 1014.0 |
| 20260506195018 | 18 | 210 | 11.3 | 11.3 | 0.00 | 0.00 | 0.00 | 69 | 1014.0 |
| 20260506194017 | 18 | 210 | 11.3 | 11.3 | 0.00 | 0.00 | 0.00 | 69 | 1014.0 |
| 20260506193016 | 26 | 210 | 11.3 | 11.3 | 0.00 | 0.00 | 0.00 | 67 | 1015.0 |
| 20260506192016 | 23 | 213 | 11.3 | 11.3 | 0.00 | 0.00 | 0.00 | 62 | 1015.0 |
| 20260506191015 | 22 | 213 | 11.3 | 11.3 | 0.00 | 0.00 | 0.00 | 62 | 1015.0 |
| 20260506190015 | 21 | 213 | 11.3 | 11.3 | 0.00 | 0.00 | 0.00 | 62 | 1015.0 |
| 20260506185014 | 20 | 213 | 11.3 | 11.3 | 0.00 | 0.00 | 0.00 | 62 | 1015.0 |
| 20260506184013 | 18 | 213 | 11.3 | 11.3 | 0.00 | 0.00 | 0.00 | 62 | 1015.0 |
| 20260506183013 | 25 | 213 | 11.3 | 11.3 | 0.00 | 0.00 | 0.00 | 60 | 1015.0 |
| 20260506182012 | 26 | 216 | 11.3 | 11.3 | 0.00 | 0.00 | 0.00 | 58 | 1015.0 |
| 20260506181012 | 25 | 216 | 11.3 | 11.3 | 0.00 | 0.00 | 0.00 | 59 | 1015.0 |
| 20260506180011 | 25 | 216 | 11.3 | 11.3 | 0.00 | 0.00 | 0.00 | 59 | 1015.0 |
| 20260506175010 | 24 | 216 | 11.3 | 11.3 | 0.00 | 0.00 | 0.00 | 59 | 1015.0 |
| 20260506172928 | 23 | 218 | 11.3 | 11.3 | 0.00 | 0.00 | 0.00 | 64 | 1016.0 |
| 20260506171927 | 22 | 218 | 11.3 | 11.3 | 0.00 | 0.00 | 0.00 | 64 | 1016.0 |
| 20260506170926 | 21 | 218 | 11.3 | 11.3 | 0.00 | 0.00 | 0.00 | 64 | 1016.0 |
| 20260506165926 | 20 | 218 | 11.3 | 11.3 | 0.00 | 0.00 | 0.00 | 64 | 1016.0 |
| 20260506164925 | 24 | 219 | 8.0 | 8.0 | 0.00 | 0.00 | 0.00 | 69 | 1016.0 |
| 20260506163920 | 23 | 219 | 8.0 | 8.0 | 0.00 | 0.00 | 0.00 | 69 | 1016.0 |
| 20260506162919 | 23 | 219 | 8.0 | 8.0 | 0.00 | 0.00 | 0.00 | 69 | 1016.0 |
| 20260506161928 | 22 | 219 | 8.0 | 8.0 | 0.00 | 0.00 | 0.00 | 69 | 1016.0 |
| 20260506160928 | 21 | 219 | 8.0 | 8.0 | 0.00 | 0.00 | 0.00 | 69 | 1016.0 |
| 20260506155927 | 20 | 219 | 8.0 | 9.7 | 0.00 | 0.00 | 0.00 | 69 | 1016.0 |
| 20260506154926 | 23 | 222 | 6.4 | 1.6 | 0.00 | 0.00 | 0.00 | 83 | 1016.0 |
| 20260506153926 | 22 | 222 | 6.4 | 1.6 | 0.00 | 0.00 | 0.00 | 83 | 1016.0 |
| 20260506152925 | 21 | 222 | 6.4 | 1.6 | 0.00 | 0.00 | 0.00 | 83 | 1017.0 |
| 20260506151924 | 20 | 222 | 6.4 | 3.2 | 0.00 | 0.00 | 0.00 | 83 | 1017.0 |
| 20260506150924 | 22 | 250 | 1.6 | 1.6 | 0.00 | 0.00 | 0.00 | 86 | 1017.0 |
| 20260506145923 | 22 | 250 | 1.6 | 1.6 | 0.00 | 0.00 | 0.00 | 86 | 1017.0 |
| 20260506144922 | 21 | 250 | 1.6 | 1.6 | 0.00 | 0.00 | 0.00 | 86 | 1017.0 |
| 20260506143922 | 20 | 250 | 1.6 | 1.6 | 0.00 | 0.00 | 0.00 | 86 | 1017.0 |
| 20260506142921 | 18 | 250 | 1.6 | 1.6 | 0.00 | 0.00 | 0.00 | 86 | 1017.0 |
| 20260506141920 | 17 | 250 | 1.6 | 1.6 | 0.00 | 0.00 | 0.00 | 86 | 1017.0 |
| 20260506140920 | 20 | 33 | 1.6 | 1.6 | 0.00 | 0.00 | 0.00 | 90 | 1017.0 |
| 20260506135919 | 18 | 33 | 1.6 | 1.6 | 0.00 | 0.00 | 0.00 | 90 | 1017.0 |
| 20260506134918 | 17 | 33 | 1.6 | 1.6 | 0.00 | 0.00 | 0.00 | 90 | 1017.0 |
| 20260506133918 | 16 | 33 | 1.6 | 1.6 | 0.00 | 0.00 | 0.00 | 90 | 1017.0 |
| 20260506132917 | 15 | 33 | 1.6 | 1.6 | 0.00 | 0.00 | 0.00 | 90 | 1017.0 |
| 20260506131917 | 14 | 33 | 3.2 | 3.2 | 0.00 | 0.00 | 0.00 | 90 | 1017.0 |
| 20260506130916 | 17 | 42 | 4.8 | 1.6 | 0.00 | 0.00 | 0.00 | 91 | 1018.0 |
| 20260506125915 | 16 | 42 | 4.8 | 1.6 | 0.00 | 0.00 | 0.00 | 91 | 1018.0 |
| 20260506124915 | 15 | 42 | 4.8 | 1.6 | 0.00 | 0.00 | 0.00 | 91 | 1018.0 |
| 20260506123914 | 14 | 42 | 4.8 | 1.6 | 0.00 | 0.00 | 0.00 | 91 | 1018.0 |
| 20260506122913 | 13 | 42 | 4.8 | 1.6 | 0.00 | 0.00 | 0.00 | 91 | 1018.0 |
| 20260506121913 | 12 | 42 | 4.8 | 3.2 | 0.00 | 0.00 | 0.00 | 91 | 1018.0 |
| 20260506120912 | 13 | 42 | 4.8 | 1.6 | 0.00 | 0.00 | 0.00 | 90 | 1018.0 |
| 20260506115912 | 12 | 42 | 4.8 | 1.6 | 0.00 | 0.00 | 0.00 | 90 | 1018.0 |
| 20260506114911 | 11 | 42 | 4.8 | 3.2 | 0.00 | 0.00 | 0.00 | 90 | 1018.0 |
| 20260506113910 | 11 | 42 | 4.8 | 3.2 | 0.00 | 0.00 | 0.00 | 90 | 1018.0 |
| 20260506112910 | 13 | 48 | 4.8 | 3.2 | 0.00 | 0.00 | 0.00 | 92 | 1018.0 |
| 20260506111909 | 14 | 48 | 4.8 | 1.6 | 0.00 | 0.00 | 0.00 | 91 | 1018.0 |
| 20260506110908 | 13 | 48 | 4.8 | 3.2 | 0.00 | 0.00 | 0.00 | 91 | 1018.0 |
| 20260506105908 | 14 | 48 | 4.8 | 1.6 | 0.00 | 0.00 | 0.00 | 90 | 1018.0 |
| 20260506104907 | 13 | 48 | 4.8 | 3.2 | 0.00 | 0.00 | 0.00 | 90 | 1018.0 |
| 20260506103907 | 14 | 49 | 4.8 | 1.6 | 0.00 | 0.00 | 0.00 | 91 | 1018.0 |
| 20260506102906 | 13 | 49 | 4.8 | 3.2 | 0.00 | 0.00 | 0.00 | 91 | 1017.0 |
| 20260506101905 | 14 | 49 | 4.8 | 1.6 | 0.00 | 0.00 | 0.00 | 91 | 1017.0 |
| 20260506100905 | 13 | 49 | 4.8 | 3.2 | 0.00 | 0.00 | 0.00 | 91 | 1017.0 |
| 20260506095904 | 14 | 49 | 4.8 | 1.6 | 0.00 | 0.00 | 0.00 | 90 | 1017.0 |
| 20260506094903 | 13 | 49 | 4.8 | 3.2 | 0.00 | 0.00 | 0.00 | 90 | 1017.0 |
| 20260506093903 | 15 | 50 | 4.8 | 1.6 | 0.00 | 0.00 | 0.00 | 92 | 1017.0 |
| 20260506092902 | 14 | 50 | 4.8 | 1.6 | 0.00 | 0.00 | 0.00 | 92 | 1017.0 |
| 20260506091902 | 13 | 50 | 4.8 | 3.2 | 0.00 | 0.00 | 0.00 | 92 | 1017.0 |
| 20260506090901 | 15 | 50 | 4.8 | 1.6 | 0.00 | 0.00 | 0.00 | 91 | 1017.0 |
| 20260506085900 | 14 | 50 | 4.8 | 1.6 | 0.00 | 0.00 | 0.00 | 91 | 1017.0 |
| 20260506084859 | 13 | 50 | 4.8 | 3.2 | 0.00 | 0.00 | 0.00 | 91 | 1017.0 |
| 20260506083859 | 15 | 47 | 4.8 | 1.6 | 0.00 | 0.00 | 0.00 | 93 | 1017.0 |
| 20260506082858 | 14 | 47 | 4.8 | 1.6 | 0.00 | 0.00 | 0.00 | 93 | 1017.0 |
| 20260506081858 | 13 | 47 | 4.8 | 3.2 | 0.00 | 0.00 | 0.00 | 93 | 1017.0 |
| 20260506080857 | 15 | 47 | 4.8 | 1.6 | 0.00 | 0.00 | 0.00 | 92 | 1017.0 |
| 20260506072846 | 14 | 43 | 4.8 | 1.6 | 0.00 | 0.00 | 0.00 | 92 | 1018.0 |
| 20260506071845 | 13 | 43 | 4.8 | 3.2 | 0.00 | 0.00 | 0.00 | 92 | 1018.0 |
| 20260506070844 | 15 | 43 | 4.8 | 1.6 | 0.00 | 0.00 | 0.00 | 91 | 1018.0 |
| 20260506061841 | 13 | 43 | 6.4 | 4.8 | 0.00 | 0.00 | 0.00 | 92 | 1018.0 |
| 20260506060841 | 16 | 43 | 6.4 | 4.8 | 0.00 | 0.00 | 0.00 | 91 | 1018.0 |
| 20260506050837 | 15 | 43 | 6.4 | 4.8 | 0.00 | 0.00 | 0.00 | 90 | 1018.0 |
| 20260506044835 | 15 | 43 | 6.4 | 4.8 | 0.00 | 0.00 | 0.00 | 90 | 1018.0 |
| 20260506043835 | 14 | 43 | 6.4 | 4.8 | 0.00 | 0.00 | 0.00 | 90 | 1018.0 |
| 20260506042834 | 16 | 46 | 8.0 | 6.4 | 0.00 | 0.00 | 0.00 | 91 | 1018.0 |